Mandan, ND

6:22 AM CDT on September 21, 2017 (GMT -0500)
Mandan

Weather History for KY19 - March, 2013

Change the Weather History Date:

Wednesday, March 6, 2013

  Actual Average (KBIS) Record (KBIS)
Temperature  
Mean Temperature 11 °F -  
Max Temperature 21 °F 34 °F 75 °F (2016)
Min Temperature 1 °F 12 °F -26 °F (1996)
Degree Days  
Heating Degree Days 54    
Moisture  
Dew Point 11 °F    
Average Humidity 95    
Maximum Humidity 100    
Minimum Humidity 86    
Precipitation  
Precipitation 0.00 in - - ()
Sea Level Pressure  
Sea Level Pressure 30.23 in    
Wind  
Wind Speed 8 mph (ESE)    
Max Wind Speed 18 mph    
Max Gust Speed 24 mph    
Visibility 10 miles    
Events Snow    
Averages and records for this station are not official NWS values.
T = Trace of Precipitation, MM = Missing Value Source: NWS Daily Summary

Daily Weather History Graph

Daily Weather History Graph

Search for Another Location

Airport or City:

Trip Planner

Search our weather history database for the weather conditions in past years. The results will help you decide how hot, cold, wet, or windy it might be!

Date:

Astronomy

Mar. 06, 2013 Rise Set
Actual Time 7:13 AM CST 6:36 PM CST
Civil Twilight 6:43 AM CST 7:07 PM CST
Nautical Twilight 6:07 AM CST 7:42 PM CST
Astronomical Twilight 5:32 AM CST 8:17 PM CST
Moon 3:39 AM CST (3/6) 1:05 PM CST (3/6)
Length of Visible Light 12h 24m
Length of Day
11h 23m
Waning Crescent, 29% of the Moon is Illuminated
Mar 6
Waning Crescent
Mar 11
New
Mar 19
First Quarter
Mar 27
Full
Apr 2
Last Quarter

Hourly Weather History & Observations

Time (CST) Temp. Windchill Dew Point Humidity Pressure Visibility Wind Dir Wind Speed Gust Speed Precip Events Conditions
12:15 AM 10.4 °F 2.2 °F 10.4 °F 100% 30.37 in 9.0 mi ESE 4.6 mph - N/A   Overcast
12:35 AM 10.4 °F 4.0 °F 10.4 °F 100% 30.36 in 10.0 mi East 3.5 mph - N/A Snow Light Snow
12:55 AM 10.4 °F 4.0 °F 10.4 °F 100% 30.36 in 10.0 mi East 3.5 mph - N/A Snow Light Snow
1:15 AM 10.4 °F 2.2 °F 10.4 °F 100% 30.36 in 8.0 mi ESE 4.6 mph - N/A Snow Light Snow
1:35 AM 8.6 °F 2.0 °F 8.6 °F 100% 30.36 in 10.0 mi East 3.5 mph - N/A Snow Light Snow
1:55 AM 8.6 °F 0.1 °F 6.8 °F 92% 30.36 in 10.0 mi ENE 4.6 mph - N/A Snow Light Snow
2:15 AM 8.6 °F -1.3 °F 6.8 °F 92% 30.35 in 9.0 mi East 5.8 mph - N/A   Overcast
2:35 AM 8.6 °F -1.3 °F 8.6 °F 100% 30.35 in 10.0 mi East 5.8 mph - N/A Snow Light Snow
2:55 AM 8.6 °F -1.3 °F 8.6 °F 100% 30.35 in 10.0 mi SE 5.8 mph - N/A   Overcast
3:15 AM 8.6 °F 0.1 °F 6.8 °F 92% 30.35 in 10.0 mi SE 4.6 mph - N/A   Mostly Cloudy
3:35 AM 6.8 °F -2.0 °F 6.8 °F 100% 30.35 in 10.0 mi SSE 4.6 mph - N/A   Mostly Cloudy
3:55 AM 8.6 °F 0.1 °F 6.8 °F 92% 30.35 in 9.0 mi SSE 4.6 mph - N/A Snow Light Snow
4:15 AM 8.6 °F 0.1 °F 8.6 °F 100% 30.34 in 10.0 mi SSE 4.6 mph - N/A Snow Light Snow
4:35 AM 6.8 °F -3.5 °F 6.8 °F 100% 30.34 in 10.0 mi SSE 5.8 mph - N/A   Overcast
4:55 AM 6.8 °F -0.1 °F 6.8 °F 100% 30.34 in 10.0 mi SE 3.5 mph - N/A   Overcast
5:15 AM 6.8 °F -0.1 °F 6.8 °F 100% 30.33 in 10.0 mi ESE 3.5 mph - N/A   Overcast
5:35 AM 5.0 °F -5.6 °F 3.2 °F 92% 30.33 in 10.0 mi ENE 5.8 mph - N/A   Mostly Cloudy
5:55 AM 3.2 °F -9.1 °F 1.4 °F 92% 30.33 in 10.0 mi ENE 6.9 mph - N/A   Partly Cloudy
6:15 AM 3.2 °F -6.2 °F 1.4 °F 92% 30.33 in 10.0 mi East 4.6 mph - N/A   Clear
6:35 AM 3.2 °F -10.3 °F 1.4 °F 92% 30.33 in 10.0 mi East 8.1 mph - N/A Snow Light Snow
6:55 AM 1.4 °F -6.2 °F -0.4 °F 92% 30.33 in 10.0 mi ESE 3.5 mph - N/A   Clear
7:15 AM 1.4 °F -11.3 °F -0.4 °F 92% 30.33 in 9.0 mi East 6.9 mph - N/A   Scattered Clouds
7:35 AM 1.4 °F -9.9 °F -0.4 °F 92% 30.32 in 8.0 mi ESE 5.8 mph - N/A   Partly Cloudy
7:55 AM 1.4 °F -11.3 °F -0.4 °F 92% 30.32 in 8.0 mi ENE 6.9 mph - N/A   Partly Cloudy
8:15 AM 1.4 °F -12.5 °F -0.4 °F 92% 30.32 in 7.0 mi ENE 8.1 mph - N/A   Mostly Cloudy
8:35 AM 3.2 °F -7.8 °F 1.4 °F 92% 30.32 in 7.0 mi East 5.8 mph - N/A   Mostly Cloudy
8:55 AM 5.0 °F -6.9 °F 3.2 °F 92% 30.32 in 7.0 mi East 6.9 mph - N/A   Overcast
9:15 AM 6.8 °F -3.5 °F 5.0 °F 92% 30.32 in 9.0 mi ESE 5.8 mph - N/A   Mostly Cloudy
9:35 AM 8.6 °F -4.7 °F 6.8 °F 92% 30.31 in 9.0 mi ESE 9.2 mph - N/A Snow Light Snow
9:55 AM 8.6 °F -3.7 °F 8.6 °F 100% 30.30 in 10.0 mi ESE 8.1 mph - N/A   Mostly Cloudy
10:15 AM 10.4 °F -3.3 °F 10.4 °F 100% 30.30 in 10.0 mi ESE 10.4 mph - N/A   Mostly Cloudy
10:35 AM 10.4 °F -1.5 °F 10.4 °F 100% 30.30 in 10.0 mi ESE 8.1 mph - N/A   Mostly Cloudy
10:55 AM 12.2 °F -0.2 °F 12.2 °F 100% 30.29 in 9.0 mi ESE 9.2 mph - N/A Snow Light Snow
11:15 AM 14.0 °F 1.2 °F 14.0 °F 100% 30.27 in 10.0 mi East 10.4 mph - N/A   Overcast
11:35 AM 15.8 °F 2.7 °F 15.8 °F 100% 30.27 in 10.0 mi ESE 11.5 mph - N/A   Overcast
11:55 AM 15.8 °F 2.7 °F 15.8 °F 100% 30.26 in 10.0 mi ESE 11.5 mph - N/A   Mostly Cloudy
12:15 PM 15.8 °F 2.1 °F 15.8 °F 100% 30.25 in 10.0 mi ESE 12.7 mph - N/A   Scattered Clouds
12:35 PM 17.6 °F 3.7 °F 17.6 °F 100% 30.24 in 10.0 mi ESE 13.8 mph 19.6 mph N/A   Partly Cloudy
12:55 PM 19.4 °F 5.5 °F 17.6 °F 93% 30.23 in 10.0 mi ESE 15.0 mph - N/A   Scattered Clouds
1:15 PM 19.4 °F 5.0 °F 15.8 °F 86% 30.22 in 10.0 mi ESE 16.1 mph - N/A   Partly Cloudy
1:35 PM 19.4 °F 5.0 °F 15.8 °F 86% 30.21 in 10.0 mi ESE 16.1 mph - N/A   Clear
1:55 PM 19.4 °F 5.5 °F 15.8 °F 86% 30.20 in 10.0 mi ESE 15.0 mph - N/A   Clear
2:15 PM 21.2 °F 7.3 °F 17.6 °F 86% 30.18 in 10.0 mi ESE 16.1 mph - N/A   Clear
2:35 PM 21.2 °F 6.8 °F 17.6 °F 86% 30.17 in 10.0 mi ESE 17.3 mph - N/A   Partly Cloudy
3:15 PM 21.2 °F 6.8 °F 17.6 °F 86% 30.15 in 10.0 mi ESE 17.3 mph - N/A   Clear
3:35 PM 21.2 °F 6.8 °F 17.6 °F 86% 30.15 in 10.0 mi ESE 17.3 mph 21.9 mph N/A   Clear
3:55 PM 21.2 °F 6.4 °F 17.6 °F 86% 30.14 in 10.0 mi ESE 18.4 mph - N/A   Clear
4:15 PM 21.2 °F 7.8 °F 17.6 °F 86% 30.13 in 10.0 mi East 15.0 mph - N/A   Clear
4:35 PM 21.2 °F 7.8 °F 17.6 °F 86% 30.12 in 10.0 mi ESE 15.0 mph 20.7 mph N/A   Clear
4:55 PM 19.4 °F 5.5 °F 17.6 °F 93% 30.11 in 10.0 mi ESE 15.0 mph 20.7 mph N/A   Clear
5:15 PM 19.4 °F 5.5 °F 17.6 °F 93% 30.11 in 10.0 mi ESE 15.0 mph - N/A   Clear
5:35 PM 19.4 °F 5.5 °F 17.6 °F 93% 30.11 in 10.0 mi ESE 15.0 mph - N/A   Clear
5:55 PM 19.4 °F 5.5 °F 15.8 °F 86% 30.11 in 10.0 mi ESE 15.0 mph - N/A   Clear
6:15 PM 17.6 °F 4.3 °F 15.8 °F 93% 30.11 in 10.0 mi ESE 12.7 mph - N/A   Clear
6:35 PM 17.6 °F 4.3 °F 15.8 °F 93% 30.12 in 10.0 mi ESE 12.7 mph 21.9 mph N/A   Clear
6:55 PM 15.8 °F 0.9 °F 15.8 °F 100% 30.12 in 10.0 mi ESE 15.0 mph - N/A   Clear
7:15 PM 15.8 °F 0.9 °F 14.0 °F 93% 30.12 in 10.0 mi East 15.0 mph - N/A   Clear
7:35 PM 15.8 °F 0.3 °F 14.0 °F 93% 30.12 in 10.0 mi East 16.1 mph 21.9 mph N/A   Clear
7:55 PM 14.0 °F -1.4 °F 14.0 °F 100% 30.12 in 10.0 mi ESE 15.0 mph - N/A   Clear
8:35 PM 14.0 °F - 14.0 °F 100% 30.10 in 10.0 mi North - - N/A   Clear
8:55 PM 14.0 °F - 12.2 °F 93% 30.09 in 10.0 mi North - - N/A   Clear
9:15 PM 14.0 °F -2.0 °F 12.2 °F 93% 30.09 in 10.0 mi ESE 16.1 mph - N/A   Clear
9:35 PM 14.0 °F -2.0 °F 14.0 °F 100% 30.10 in 10.0 mi ESE 16.1 mph - N/A   Clear
9:55 PM 14.0 °F -3.0 °F 14.0 °F 100% 30.10 in 10.0 mi SE 18.4 mph 24.2 mph N/A   Clear
10:15 PM 14.0 °F -2.0 °F 14.0 °F 100% 30.09 in 10.0 mi SE 16.1 mph 24.2 mph N/A   Clear
10:35 PM 14.0 °F -3.0 °F 14.0 °F 100% 30.08 in 10.0 mi ESE 18.4 mph 21.9 mph N/A   Clear
10:55 PM 15.8 °F -0.6 °F 14.0 °F 93% 30.07 in 10.0 mi ESE 18.4 mph 23.0 mph N/A   Clear
11:15 PM 15.8 °F -0.2 °F 14.0 °F 93% 30.07 in 10.0 mi ESE 17.3 mph - N/A   Partly Cloudy
11:35 PM 15.8 °F 1.4 °F 15.8 °F 100% 30.07 in 10.0 mi ESE 13.8 mph - N/A   Mostly Cloudy
11:55 PM 15.8 °F 0.9 °F 15.8 °F 100% 30.06 in 10.0 mi ESE 15.0 mph - N/A   Overcast